CW0783 Weather Reports


time (UTC)temp
F
wind
direction
speed
knots
gust
knots
rain 1hr
in
rain 24hr
in
rain mn
in
humidity
%
barometer
mb
20260509102228 50 220 2.6 2.6 0.00 0.00 0.00 97 1006.3
20260509101725 50 197 2.6 3.5 0.00 0.00 0.00 97 1006.6
20260509101221 50 226 0.9 5.2 0.00 0.00 0.00 97 1006.2
20260509100719 50 230 1.7 3.5 0.00 0.00 0.00 97 1006.4
20260509100216 50 234 2.6 3.5 0.00 0.00 0.00 97 1006.7
20260509095712 50 224 1.7 3.5 0.00 0.00 0.00 97 1006.6
20260509095210 50 225 0.9 3.5 0.00 0.00 0.00 97 1006.8
20260509094706 50 227 3.5 3.5 0.00 0.00 0.00 97 1006.7
20260509094203 50 235 1.7 1.7 0.00 0.00 0.00 97 1006.8
20260509093702 50 213 0.9 5.2 0.00 0.00 0.00 97 1006.7
20260509093158 50 209 1.7 2.6 0.00 0.00 0.00 97 1006.4
20260509092656 50 209 1.7 3.5 0.00 0.00 0.00 97 1006.7
20260509092155 49 224 1.7 3.5 0.00 0.00 0.00 97 1007.0
20260509091652 49 210 2.6 2.6 0.00 0.00 0.00 97 1006.9
20260509091148 49 221 1.7 5.2 0.00 0.00 0.00 97 1006.7
20260509090646 49 190 1.7 2.6 0.00 0.00 0.00 97 1006.4
20260509090143 49 231 3.5 5.2 0.00 0.00 0.00 97 1006.7
20260509085641 49 210 1.7 1.7 0.00 0.00 0.00 97 1006.4
20260509085136 49 197 1.7 2.6 0.00 0.00 0.00 97 1006.7
20260509084634 49 210 1.7 1.7 0.00 0.00 0.00 97 1006.7
20260509084131 49 213 0.9 1.7 0.00 0.00 0.00 97 1006.8
20260509083628 49 186 0.9 1.7 0.00 0.00 0.00 97 1007.0
20260509083124 49 192 0.9 2.6 0.00 0.00 0.00 97 1006.9
20260509082622 49 183 1.7 1.7 0.00 0.00 0.00 97 1006.7
20260509082119 49 215 0.9 0.9 0.00 0.00 0.00 97 1006.8
20260509081616 49 197 0.0 0.0 0.00 0.00 0.00 97 1006.9
20260509081113 49 194 0.0 0.9 0.00 0.00 0.00 96 1006.7
20260509080611 49 191 0.9 0.9 0.00 0.00 0.00 96 1006.9
20260509080109 49 197 0.0 0.0 0.00 0.00 0.00 96 1006.9
20260509075606 49 213 0.0 0.0 0.00 0.00 0.00 96 1006.9
20260509075104 50 205 0.0 0.0 0.00 0.00 0.00 96 1006.9
20260509074600 50 212 0.0 0.9 0.00 0.00 0.00 96 1006.8
20260509074057 50 190 0.0 0.9 0.00 0.00 0.00 96 1006.8
20260509073554 50 186 0.9 1.7 0.00 0.00 0.00 96 1006.7
20260509073050 50 192 0.9 1.7 0.00 0.00 0.00 96 1006.6
20260509072547 50 153 0.9 0.9 0.00 0.00 0.00 96 1007.0
20260509072044 50 187 0.0 0.0 0.00 0.00 0.00 95 1007.2
20260509071540 50 195 0.0 0.9 0.00 0.00 0.00 95 1007.1
20260509071038 50 189 0.0 1.7 0.00 0.00 0.00 95 1007.0
20260509070535 50 189 0.0 0.0 0.00 0.00 0.00 95 1007.1
20260509070031 50 199 0.0 0.0 0.00 0.00 0.00 95 1007.0
20260509065526 50 200 0.0 0.0 0.00 0.00 0.00 95 1007.3
20260509065023 51 205 0.0 1.7 0.00 0.00 0.00 95 1007.3
20260509064521 51 198 0.0 0.0 0.00 0.00 0.00 94 1007.3
20260509064019 51 208 0.0 0.0 0.00 0.00 0.00 94 1007.6
20260509063513 51 205 0.0 0.0 0.00 0.00 0.00 94 1007.5
20260509063011 51 200 0.0 1.7 0.00 0.00 0.00 94 1007.5
20260509062508 51 204 0.0 0.9 0.00 0.00 0.00 94 1007.4
20260509062006 51 198 0.0 0.9 0.00 0.00 0.00 94 1007.4
20260509061503 51 203 0.9 1.7 0.00 0.00 0.00 93 1007.5
20260509061000 51 206 0.9 1.7 0.00 0.00 0.00 93 1007.5
20260509060457 51 209 0.9 1.7 0.00 0.00 0.00 93 1007.5
20260509055953 51 203 0.0 0.9 0.00 0.00 0.00 93 1007.9
20260509055448 52 184 0.9 1.7 0.00 0.00 0.00 92 1007.8
20260509054945 52 207 0.9 1.7 0.00 0.00 0.00 92 1007.6
20260509054442 52 196 0.0 1.7 0.00 0.00 0.00 92 1007.8
20260509053940 52 153 0.9 1.7 0.00 0.00 0.00 92 1007.9
20260509053438 52 203 0.9 1.7 0.00 0.00 0.00 92 1007.7
20260509052935 52 211 0.9 0.9 0.00 0.00 0.00 91 1007.4
20260509052432 52 191 0.9 0.9 0.00 0.00 0.00 91 1007.6
20260509051930 52 194 0.9 1.7 0.00 0.00 0.00 90 1007.7
20260509051428 52 212 1.7 2.6 0.00 0.00 0.00 90 1007.9
20260509050924 53 208 1.7 2.6 0.00 0.00 0.00 90 1007.9
20260509050421 53 199 0.9 1.7 0.00 0.00 0.00 90 1007.8
20260509045918 53 217 0.9 1.7 0.00 0.00 0.00 89 1008.2
20260509045415 53 215 0.9 1.7 0.00 0.00 0.00 89 1008.0
20260509044912 53 226 0.0 1.7 0.00 0.00 0.00 89 1008.1
20260509044410 53 215 0.9 1.7 0.00 0.00 0.00 88 1008.0
20260509043906 53 228 1.7 2.6 0.00 0.00 0.00 88 1007.9
20260509043402 53 147 0.9 1.7 0.00 0.00 0.00 88 1008.1
20260509042858 54 223 0.0 0.0 0.00 0.00 0.00 87 1008.3
20260509042355 54 233 0.9 0.9 0.00 0.00 0.00 86 1008.2
20260509041851 54 186 2.6 2.6 0.00 0.00 0.00 86 1008.1
20260509041348 54 211 0.9 1.7 0.00 0.00 0.00 86 1008.1
20260509040847 54 209 1.7 1.7 0.00 0.00 0.00 85 1008.1
20260509040344 54 214 0.9 1.7 0.00 0.00 0.00 85 1008.1
20260509035841 54 222 0.9 2.6 0.00 0.00 0.00 85 1008.4
20260509035338 54 147 0.0 1.7 0.00 0.00 0.00 84 1008.3
20260509034834 54 242 1.7 2.6 0.00 0.00 0.00 84 1008.3
20260509034332 55 218 0.9 0.9 0.00 0.00 0.00 83 1008.4
20260509033828 55 184 1.7 1.7 0.00 0.00 0.00 83 1008.5
20260509033326 55 205 1.7 1.7 0.00 0.00 0.00 82 1008.6
20260509032822 55 250 2.6 3.5 0.00 0.00 0.00 82 1008.6
20260509032320 55 215 0.9 2.6 0.00 0.00 0.00 82 1008.6
20260509031818 55 208 0.9 1.7 0.00 0.00 0.00 81 1008.4
20260509031315 55 194 0.9 1.7 0.00 0.00 0.00 81 1008.5
20260509030812 55 204 0.9 2.6 0.00 0.00 0.00 80 1008.6
20260509030310 56 227 1.7 1.7 0.00 0.00 0.00 80 1008.5
20260509025806 56 232 2.6 2.6 0.00 0.00 0.00 80 1008.8
20260509025306 56 153 0.9 1.7 0.00 0.00 0.00 79 1008.6
20260509024757 56 209 0.9 1.7 0.00 0.00 0.00 79 1008.8
20260509024254 56 226 0.9 1.7 0.00 0.00 0.00 79 1008.6
20260509023751 56 220 0.9 1.7 0.00 0.00 0.00 78 1008.4
20260509023248 56 237 0.9 3.5 0.00 0.00 0.00 79 1008.5
20260509022744 56 228 1.7 1.7 0.00 0.00 0.00 79 1008.7
20260509022242 56 228 0.9 1.7 0.00 0.00 0.00 80 1008.6
20260509021739 56 201 0.9 0.9 0.00 0.00 0.00 79 1008.7
20260509021236 57 210 0.9 2.6 0.00 0.00 0.00 79 1008.6
20260509020734 57 199 0.9 2.6 0.00 0.00 0.00 78 1008.4
20260509020231 57 215 0.9 1.7 0.00 0.00 0.00 78 1008.6
20260509015729 57 214 1.7 2.6 0.00 0.00 0.00 78 1008.3
20260509015227 57 201 1.7 2.6 0.00 0.00 0.00 77 1008.3
20260509014723 57 225 0.9 1.7 0.00 0.00 0.00 77 1008.5
20260509014220 57 222 1.7 5.2 0.00 0.00 0.00 77 1008.3
20260509013717 58 197 2.6 2.6 0.00 0.00 0.00 77 1008.3
20260509013212 58 222 0.9 2.6 0.00 0.00 0.00 76 1008.5
20260509012709 58 235 1.7 2.6 0.00 0.00 0.00 76 1008.5
20260509012206 58 198 1.7 1.7 0.00 0.00 0.00 75 1008.4
20260509011704 58 189 3.5 5.2 0.00 0.00 0.00 75 1008.6
20260509011201 59 236 2.6 3.5 0.00 0.00 0.00 74 1008.2
20260509010659 59 233 3.5 5.2 0.00 0.00 0.00 74 1008.5
20260509010154 59 240 1.7 5.2 0.00 0.00 0.00 73 1008.3
20260509005652 59 229 3.5 6.1 0.00 0.00 0.00 73 1008.2
20260509005149 60 222 2.6 2.6 0.00 0.00 0.00 71 1008.2
20260509004644 60 223 1.7 2.6 0.00 0.00 0.00 69 1008.3
20260509004142 60 225 0.9 1.7 0.00 0.00 0.00 66 1008.1
20260509003640 61 214 0.0 0.0 0.00 0.00 0.00 66 1008.1
20260509003137 61 208 0.0 1.7 0.00 0.00 0.00 65 1008.0
20260509002634 61 213 0.9 1.7 0.00 0.00 0.00 65 1007.9
20260509002131 62 220 0.0 0.9 0.00 0.00 0.00 64 1007.9
20260509001629 62 231 2.6 2.6 0.00 0.00 0.00 63 1007.9
20260509001125 62 227 0.9 5.2 0.00 0.00 0.00 63 1008.2
20260509000623 62 227 0.9 2.6 0.00 0.00 0.00 63 1007.8
20260509000119 62 211 0.9 1.7 0.00 0.00 0.00 63 1008.1
20260508235617 62 242 1.7 1.7 0.00 0.00 0.00 63 1008.1
20260508235113 62 238 3.5 5.2 0.00 0.00 0.00 64 1008.1
20260508234611 62 216 2.6 3.5 0.00 0.00 0.00 63 1008.0
20260508234107 62 211 4.3 6.1 0.00 0.00 0.00 64 1008.0
20260508233607 62 257 3.5 3.5 0.00 0.00 0.00 64 1008.1
20260508233104 62 217 1.7 7.8 0.00 0.00 0.00 64 1008.1
20260508232601 63 209 2.6 3.5 0.00 0.00 0.00 64 1008.1
20260508232057 63 220 0.9 3.5 0.00 0.00 0.00 65 1007.9
20260508231555 63 250 1.7 3.5 0.00 0.00 0.00 64 1007.9
20260508231052 63 248 2.6 2.6 0.00 0.00 0.00 64 1008.2
20260508230548 63 232 1.7 2.6 0.00 0.00 0.00 65 1008.4
20260508230045 64 254 2.6 3.5 0.00 0.00 0.00 64 1008.0
20260508225542 63 304 1.7 2.6 0.00 0.00 0.00 65 1008.1
20260508225039 62 227 3.5 5.2 0.00 0.00 0.00 65 1008.3
20260508224537 63 178 2.6 3.5 0.00 0.00 0.00 64 1008.3
20260508224034 62 266 3.5 3.5 0.00 0.00 0.00 66 1008.4
20260508223532 62 283 1.7 3.5 0.00 0.00 0.00 66 1008.2
20260508223029 63 188 2.6 5.2 0.00 0.00 0.00 65 1008.2
20260508222526 64 215 2.6 6.1 0.00 0.00 0.00 64 1008.1
20260508222023 64 233 2.6 3.5 0.00 0.00 0.00 64 1008.1
20260508221519 63 204 5.2 6.1 0.00 0.00 0.00 64 1008.2
20260508221015 64 277 1.7 1.7 0.00 0.00 0.00 64 1008.2
20260508220512 65 229 1.7 2.6 0.00 0.00 0.00 63 1008.1
20260508220008 63 217 0.9 0.9 0.00 0.00 0.00 64 1008.6
20260508215505 62 124 0.0 0.0 0.00 0.00 0.00 64 1008.3
20260508215001 62 208 0.9 1.7 0.00 0.00 0.00 65 1008.4
20260508214459 63 239 0.9 1.7 0.00 0.00 0.00 63 1008.5
20260508213955 63 260 2.6 2.6 0.00 0.00 0.00 63 1008.4
20260508213453 64 186 1.7 3.5 0.00 0.00 0.00 62 1008.5
20260508212948 64 203 1.7 5.2 0.00 0.00 0.00 61 1008.3
20260508212445 64 181 0.9 2.6 0.00 0.00 0.00 61 1008.4
20260508211941 64 145 0.9 1.7 0.00 0.00 0.00 60 1008.4
20260508211437 64 261 0.0 0.9 0.00 0.00 0.00 62 1008.4
20260508210934 64 179 1.7 2.6 0.00 0.00 0.00 61 1008.5
20260508210431 63 178 0.0 0.0 0.00 0.00 0.00 62 1008.7
20260508205927 63 151 0.0 0.0 0.00 0.00 0.00 63 1008.4
20260508205424 63 190 1.7 1.7 0.00 0.00 0.00 62 1008.5
20260508204920 63 131 0.9 1.7 0.00 0.00 0.00 63 1008.6
20260508204418 62 167 1.7 1.7 0.00 0.00 0.00 64 1008.7
20260508203913 62 352 0.0 0.0 0.00 0.00 0.00 65 1008.8
20260508203410 62 24 0.9 0.9 0.00 0.00 0.00 63 1008.8
20260508202906 63 209 2.6 2.6 0.00 0.00 0.00 63 1008.8
20260508202403 63 68 0.0 0.9 0.00 0.00 0.00 61 1008.8
20260508201900 63 174 1.7 1.7 0.00 0.00 0.00 64 1009.0
20260508201357 62 208 0.9 1.7 0.00 0.00 0.00 64 1009.1
20260508200853 63 226 1.7 1.7 0.00 0.00 0.00 66 1009.2
20260508200350 63 187 0.0 1.7 0.00 0.00 0.00 61 1009.4
20260508195846 64 188 0.0 1.7 0.00 0.00 0.00 59 1009.3
20260508195343 64 281 0.9 1.7 0.00 0.00 0.00 60 1009.3
20260508194839 64 133 0.9 2.6 0.00 0.00 0.00 61 1009.4
20260508194336 62 21 1.7 1.7 0.00 0.00 0.00 61 1009.3
20260508193833 62 149 2.6 2.6 0.00 0.00 0.00 62 1009.5
20260508193330 62 146 1.7 1.7 0.00 0.00 0.00 63 1009.7
20260508192826 62 198 0.0 0.9 0.00 0.00 0.00 64 1009.6
20260508192323 61 192 0.9 0.9 0.00 0.00 0.00 67 1009.7
20260508191820 61 176 0.0 1.7 0.00 0.00 0.00 66 1009.7
20260508191317 61 114 0.0 0.0 0.00 0.00 0.00 65 1009.7
20260508190815 61 161 0.0 1.7 0.00 0.00 0.00 65 1010.1
20260508190311 61 167 0.9 0.9 0.00 0.00 0.00 67 1010.0
20260508185807 61 186 0.9 1.7 0.00 0.00 0.00 67 1010.1
20260508185306 61 140 0.9 0.9 0.00 0.00 0.00 66 1010.0
20260508184802 61 181 0.9 0.9 0.00 0.00 0.00 65 1010.3
20260508184259 61 176 0.9 0.9 0.00 0.00 0.00 67 1010.1
20260508183756 61 210 0.9 1.7 0.00 0.00 0.00 65 1010.1
20260508183252 61 275 1.7 1.7 0.00 0.00 0.00 65 1010.3
20260508182748 62 231 0.9 1.7 0.00 0.00 0.00 66 1010.4
20260508182245 62 189 0.9 2.6 0.00 0.00 0.00 64 1010.4
20260508181741 62 167 0.0 0.9 0.00 0.00 0.00 65 1010.4
20260508181238 61 168 0.0 0.0 0.00 0.00 0.00 65 1010.6
20260508180734 62 188 1.7 3.5 0.00 0.00 0.00 66 1010.6
20260508180232 62 174 1.7 2.6 0.00 0.00 0.00 65 1010.4
20260508175728 61 177 0.9 2.6 0.00 0.00 0.00 67 1010.7
20260508175225 61 185 0.0 2.6 0.00 0.00 0.00 68 1010.7
20260508174723 60 184 0.0 2.6 0.00 0.00 0.00 69 1011.0
20260508174220 60 135 0.9 1.7 0.00 0.00 0.00 71 1011.0
20260508173716 61 164 0.0 1.7 0.00 0.00 0.00 69 1011.2
20260508173212 60 110 0.0 0.9 0.00 0.00 0.00 70 1011.5
20260508172709 61 191 0.0 2.6 0.00 0.00 0.00 67 1011.4
20260508172206 61 232 0.9 3.5 0.00 0.00 0.00 70 1011.6
20260508171702 61 186 1.7 2.6 0.00 0.00 0.00 68 1011.7
20260508171159 61 228 1.7 2.6 0.00 0.00 0.00 67 1011.5
20260508170656 61 211 1.7 3.5 0.00 0.00 0.00 66 1011.4
20260508170154 62 119 1.7 3.5 0.00 0.00 0.00 64 1011.7
20260508165650 62 212 3.5 3.5 0.00 0.00 0.00 67 1011.7
20260508165147 61 170 0.9 1.7 0.00 0.00 0.00 67 1011.9
20260508164644 60 203 0.9 2.6 0.00 0.00 0.00 71 1012.0
20260508164140 60 209 0.9 1.7 0.00 0.00 0.00 68 1011.9
20260508163638 61 193 0.9 1.7 0.00 0.00 0.00 68 1012.1
20260508163136 60 214 0.9 1.7 0.00 0.00 0.00 70 1012.3
20260508162631 59 187 1.7 3.5 0.00 0.00 0.00 71 1012.2
20260508162129 59 254 1.7 2.6 0.00 0.00 0.00 74 1012.2
20260508161625 59 171 1.7 2.6 0.00 0.00 0.00 71 1012.5
20260508161123 59 237 3.5 3.5 0.00 0.00 0.00 71 1012.5
20260508160621 59 206 0.0 1.7 0.00 0.00 0.00 72 1012.2
20260508160119 60 185 2.6 3.5 0.00 0.00 0.00 70 1012.2
20260508155615 59 179 0.9 2.6 0.00 0.00 0.00 73 1012.5
20260508155112 59 231 0.9 3.5 0.00 0.00 0.00 73 1012.4
20260508154609 59 187 2.6 2.6 0.00 0.00 0.00 73 1012.7
20260508154106 58 242 0.9 2.6 0.00 0.00 0.00 74 1012.5
20260508153603 59 234 0.9 5.2 0.00 0.00 0.00 72 1012.4
20260508153059 59 217 2.6 3.5 0.00 0.00 0.00 72 1012.5
20260508152557 59 187 1.7 2.6 0.00 0.00 0.00 72 1012.6
20260508152051 60 189 3.5 3.5 0.00 0.00 0.00 73 1012.6
20260508151548 58 167 2.6 3.5 0.00 0.00 0.00 75 1012.5
20260508151045 59 244 0.9 1.7 0.00 0.00 0.00 73 1012.6
20260508150543 58 196 2.6 5.2 0.00 0.00 0.00 77 1012.4
20260508150038 57 212 2.6 5.2 0.00 0.00 0.00 77 1012.5
20260508145535 57 240 1.7 3.5 0.00 0.00 0.00 77 1012.5
20260508145031 58 231 2.6 6.1 0.00 0.00 0.00 76 1012.5
20260508144529 57 244 2.6 3.5 0.00 0.00 0.00 79 1012.4
20260508144026 57 196 2.6 2.6 0.00 0.00 0.00 81 1012.4
20260508143524 57 184 2.6 2.6 0.00 0.00 0.00 80 1012.4
20260508143020 57 241 1.7 2.6 0.00 0.00 0.00 80 1012.6
20260508142518 56 256 0.9 1.7 0.00 0.00 0.00 84 1012.5
20260508142014 55 210 1.7 2.6 0.00 0.00 0.00 84 1012.4
20260508141510 55 174 2.6 3.5 0.00 0.00 0.00 84 1012.6
20260508141008 54 212 0.9 2.6 0.00 0.00 0.00 85 1012.5
20260508140506 55 196 0.9 3.5 0.00 0.00 0.00 86 1012.5
20260508140001 54 168 1.7 2.6 0.00 0.00 0.00 88 1012.6
20260508135457 54 211 0.0 1.7 0.00 0.00 0.00 89 1012.6
20260508134954 53 200 2.6 3.5 0.00 0.00 0.00 91 1012.7
20260508134450 52 229 0.9 2.6 0.00 0.00 0.00 92 1012.9
20260508133947 52 186 1.7 3.5 0.00 0.00 0.00 91 1012.9
20260508133445 51 183 1.7 1.7 0.00 0.00 0.00 92 1012.9
20260508132941 51 234 2.6 3.5 0.00 0.00 0.00 92 1012.7
20260508132440 51 220 1.7 2.6 0.00 0.00 0.00 91 1012.9
20260508131936 51 195 2.6 3.5 0.00 0.00 0.00 92 1012.6
20260508131431 50 204 1.7 3.5 0.00 0.00 0.00 91 1012.6
20260508130928 50 194 1.7 2.6 0.00 0.00 0.00 91 1012.7
20260508130425 49 205 0.9 1.7 0.00 0.00 0.00 91 1012.6
20260508125921 49 223 0.9 1.7 0.00 0.00 0.00 92 1012.8
20260508125417 48 178 0.0 0.0 0.00 0.00 0.00 91 1013.0
20260508124915 48 198 0.0 0.0 0.00 0.00 0.00 91 1013.0
20260508124413 48 215 0.0 1.7 0.00 0.00 0.00 91 1013.1
20260508123910 48 229 0.0 0.9 0.00 0.00 0.00 91 1013.1
20260508123409 47 192 0.9 1.7 0.00 0.00 0.00 90 1013.2
20260508122905 47 196 0.0 0.0 0.00 0.00 0.00 90 1012.9
20260508122402 47 250 0.9 0.9 0.00 0.00 0.00 90 1013.2
20260508121859 47 209 0.9 1.7 0.00 0.00 0.00 90 1012.9
20260508121357 47 201 0.0 0.0 0.00 0.00 0.00 90 1012.8
20260508120854 47 200 0.0 0.0 0.00 0.00 0.00 90 1012.9
20260508120352 47 187 0.0 0.0 0.00 0.00 0.00 91 1012.6
20260508115849 47 195 0.0 0.0 0.00 0.00 0.00 91 1012.5
20260508115347 47 208 0.0 0.0 0.00 0.00 0.00 92 1012.7
20260508114843 46 233 0.0 0.0 0.00 0.00 0.00 92 1012.9
20260508114340 46 203 0.0 0.0 0.00 0.00 0.00 92 1012.5
20260508113837 46 188 0.0 0.0 0.00 0.00 0.00 92 1012.4
20260508113335 46 190 0.0 0.0 0.00 0.00 0.00 92 1012.4
20260508112831 46 193 0.0 0.0 0.00 0.00 0.00 92 1012.4
20260508112329 46 194 0.0 0.0 0.00 0.00 0.00 92 1012.6
20260508111825 46 197 0.0 0.0 0.00 0.00 0.00 92 1012.6
20260508111322 46 192 0.0 0.0 0.00 0.00 0.00 92 1012.3
20260508110819 46 140 0.0 0.0 0.00 0.00 0.00 92 1012.4
20260508110317 45 146 0.0 0.0 0.00 0.00 0.00 92 1012.5
20260508105817 45 133 0.0 0.0 0.00 0.00 0.00 92 1012.4
20260508105314 45 145 0.0 0.0 0.00 0.00 0.00 92 1012.4
20260508104810 45 201 0.0 0.0 0.00 0.00 0.00 92 1012.4
20260508104307 45 201 0.0 0.0 0.00 0.00 0.00 92 1012.5
20260508103805 45 206 0.0 0.0 0.00 0.00 0.00 91 1012.7
20260508103301 45 182 0.0 0.0 0.00 0.00 0.00 91 1012.8
20260508102759 45 155 0.0 0.0 0.00 0.00 0.00 90 1012.6